�N����,����,�~����,�C��,���x,�C��,����,���ϕ���,�ő�u�ԕ���,�ő厞����,���˗�,�I�_���x,�n�����x,�ő啗���N��,DTYPE
"24/02/17","00:10",0.0,3.0,83.6,1016.4,331.8,2.2,3.5,331.6,0.00,0.5,7.5,"00:00:08",1
"24/02/17","00:20",0.0,2.8,84.1,1016.4,330.6,2.2,3.3,345.2,0.00,0.4,7.7,"00:11:12",1
"24/02/17","00:30",0.0,2.9,84.7,1016.4,329.7,2.5,4.0,342.0,0.00,0.6,7.8,"00:29:32",1
"24/02/17","00:40",0.0,3.2,84.9,1016.4,330.4,2.3,3.5,330.9,0.00,0.9,7.7,"00:33:06",1
"24/02/17","00:50",0.0,3.3,84.9,1016.4,330.4,2.3,3.3,332.3,0.00,1.0,7.6,"00:49:20",1
"24/02/17","01:00",0.0,3.5,84.5,1016.6,327.6,3.1,4.2,321.8,0.00,1.2,7.5,"00:50:48",1
"24/02/17","01:10",0.0,3.6,83.9,1016.4,326.1,2.8,5.5,346.3,0.00,1.2,7.7,"01:07:36",1
"24/02/17","01:20",0.0,3.5,83.3,1016.4,327.1,3.0,4.1,333.1,0.00,1.0,7.7,"01:10:48",1
"24/02/17","01:30",0.0,3.5,83.1,1016.8,325.1,2.3,3.9,327.3,0.00,0.9,7.7,"01:20:08",1
"24/02/17","01:40",0.0,3.4,83.6,1016.1,332.1,2.2,3.2,339.6,0.00,0.9,7.5,"01:34:32",1
"24/02/17","01:50",0.0,3.4,84.1,1015.9,330.2,3.4,5.4,334.7,0.00,1.0,7.5,"01:47:00",1
"24/02/17","02:00",0.0,3.4,84.0,1016.4,307.6,2.7,4.5,320.0,0.00,1.0,7.6,"01:50:48",1
"24/02/17","02:10",0.0,3.3,83.9,1016.1,308.0,2.6,3.5,315.4,0.00,0.9,7.6,"02:06:44",1
"24/02/17","02:20",0.0,3.3,84.0,1016.6,318.9,2.8,4.0,286.5,0.00,0.9,7.7,"02:13:20",1
"24/02/17","02:30",0.0,3.2,84.2,1016.1,327.5,2.8,4.0,330.6,0.00,0.8,7.7,"02:21:44",1
"24/02/17","02:40",0.0,3.1,84.5,1015.9,324.7,3.5,5.7,316.8,0.00,0.8,7.6,"02:35:26",1
"24/02/17","02:50",0.0,2.9,84.6,1016.1,324.8,3.2,4.7,319.5,0.00,0.6,7.7,"02:48:20",1
"24/02/17","03:00",0.0,2.8,85.0,1015.9,305.6,2.7,4.0,335.0,0.00,0.6,7.5,"02:54:14",1
"24/02/17","03:10",0.0,2.9,85.4,1015.9,322.0,3.0,4.4,340.5,0.00,0.7,7.7,"03:09:00",1
"24/02/17","03:20",0.0,2.9,85.6,1015.9,323.5,3.5,5.2,325.8,0.00,0.8,7.6,"03:17:30",1
"24/02/17","03:30",0.0,2.7,85.8,1015.6,321.0,3.0,4.8,322.3,0.00,0.6,7.5,"03:22:04",1
"24/02/17","03:40",0.0,2.6,86.2,1015.9,325.2,3.0,4.2,344.6,0.00,0.6,7.4,"03:37:22",1
"24/02/17","03:50",0.0,2.7,86.4,1015.9,319.7,2.8,4.7,334.3,0.00,0.7,7.4,"03:42:12",1
"24/02/17","04:00",0.0,2.7,86.5,1015.9,329.4,3.4,5.1,330.9,0.00,0.7,7.3,"03:55:34",1
"24/02/17","04:10",0.0,2.8,86.4,1016.1,316.9,3.4,4.7,302.2,0.00,0.8,7.3,"04:05:46",1
"24/02/17","04:20",0.0,2.7,86.3,1015.9,322.8,2.7,3.7,331.3,0.00,0.7,7.5,"04:11:04",1
"24/02/17","04:30",0.0,2.7,86.4,1015.9,325.3,3.4,5.2,333.4,0.00,0.7,7.3,"04:24:22",1
"24/02/17","04:40",0.0,2.7,86.4,1015.9,320.9,3.5,5.9,332.8,0.00,0.7,7.5,"04:38:08",1
"24/02/17","04:50",0.0,2.7,86.3,1016.1,325.6,3.9,6.0,317.7,0.00,0.7,7.3,"04:41:06",1
"24/02/17","05:00",0.0,2.7,86.3,1016.4,325.8,3.5,5.2,338.5,0.00,0.7,7.6,"04:58:40",1
"24/02/17","05:10",0.0,2.8,86.3,1016.1,319.2,3.2,5.0,332.4,0.00,0.8,7.5,"05:01:20",1
"24/02/17","05:20",0.0,2.9,86.4,1015.9,306.8,3.2,5.7,338.5,0.00,0.9,7.4,"05:13:40",1
"24/02/17","05:30",0.0,2.9,86.5,1016.4,303.7,3.0,4.8,318.5,0.00,0.9,7.5,"05:29:12",1
"24/02/17","05:40",0.0,2.9,86.7,1016.1,287.3,2.8,4.9,310.7,0.00,0.9,7.2,"05:39:52",1
"24/02/17","05:50",0.0,2.8,87.1,1016.1,282.8,2.5,3.7,274.9,0.00,0.9,7.2,"05:40:48",1
"24/02/17","06:00",0.0,2.9,87.3,1016.6,288.2,2.7,4.1,287.9,0.00,1.0,7.5,"05:50:08",1
"24/02/17","06:10",0.0,2.9,87.4,1016.6,299.2,2.8,4.8,331.6,0.00,1.1,7.3,"06:08:56",1
"24/02/17","06:20",0.0,3.1,87.4,1016.4,318.1,3.5,5.1,340.1,0.00,1.3,7.4,"06:14:32",1
"24/02/17","06:30",0.0,3.1,87.3,1016.4,323.7,3.6,5.1,337.5,0.00,1.2,7.2,"06:26:58",1
"24/02/17","06:40",0.0,3.2,87.0,1016.4,327.8,4.1,6.0,343.4,0.00,1.3,7.2,"06:37:24",1
"24/02/17","06:50",0.0,3.1,86.8,1016.6,330.9,3.9,5.7,329.8,0.00,1.2,7.4,"06:49:06",1
"24/02/17","07:00",0.0,3.1,86.5,1016.6,327.6,4.6,7.3,330.3,0.00,1.1,7.3,"06:52:50",1
"24/02/17","07:10",0.0,3.0,86.3,1016.6,332.8,3.9,5.7,344.0,0.00,1.0,7.4,"07:07:00",1
"24/02/17","07:20",0.0,3.2,86.2,1017.1,330.4,4.6,6.3,334.5,0.00,1.2,7.2,"07:16:14",1
"24/02/17","07:30",0.0,3.3,85.9,1017.1,329.2,4.9,7.9,321.6,0.00,1.2,7.2,"07:21:54",1
"24/02/17","07:40",0.0,3.2,85.7,1017.3,332.8,4.6,7.7,334.6,0.00,1.1,7.2,"07:36:50",1
"24/02/17","07:50",0.0,3.3,85.7,1017.8,326.9,4.4,6.2,338.3,0.00,1.2,7.2,"07:44:06",1
"24/02/17","08:00",0.0,3.3,85.7,1018.0,321.7,3.9,6.5,322.6,0.00,1.2,7.1,"07:55:14",1
"24/02/17","08:10",0.0,3.4,85.6,1018.0,331.0,4.5,6.7,332.2,0.02,1.3,7.3,"08:07:28",1
"24/02/17","08:20",0.0,3.6,85.5,1018.0,323.6,4.4,6.7,324.0,0.02,1.4,7.2,"08:15:12",1
"24/02/17","08:30",0.0,3.8,85.4,1018.0,326.4,4.0,5.9,331.0,0.02,1.6,7.2,"08:27:04",1
"24/02/17","08:40",0.0,4.1,85.5,1018.2,329.5,3.5,5.5,341.3,0.04,1.9,7.2,"08:38:08",1
"24/02/17","08:50",0.0,4.2,85.4,1018.2,322.9,3.9,5.5,342.6,0.05,2.0,7.2,"08:46:48",1
"24/02/17","09:00",0.0,4.4,85.3,1018.2,313.0,3.4,5.5,330.7,0.06,2.2,7.3,"08:54:16",1
"24/02/17","09:10",0.0,4.5,85.2,1018.2,319.8,3.7,5.5,310.9,0.08,2.3,7.2,"09:02:16",1
"24/02/17","09:20",0.0,4.9,85.1,1018.0,310.9,3.0,5.1,335.8,0.12,2.7,7.3,"09:10:08",1
"24/02/17","09:30",0.0,5.3,84.8,1018.2,308.8,3.4,4.7,327.1,0.13,3.0,7.3,"09:23:04",1
"24/02/17","09:40",0.0,5.8,84.3,1018.5,313.7,2.2,4.1,322.3,0.17,3.4,7.2,"09:32:00",1
"24/02/17","09:50",0.0,6.3,83.4,1018.5,320.4,2.2,3.6,334.0,0.18,3.7,7.2,"09:47:20",1
"24/02/17","10:00",0.0,6.9,82.6,1018.5,329.6,1.2,3.1,336.6,0.20,4.2,7.2,"09:51:12",1
"24/02/17","10:10",0.0,7.0,81.8,1019.0,301.1,2.1,3.1,315.9,0.19,4.1,7.4,"10:02:24",1
"24/02/17","10:20",0.0,6.9,80.6,1019.2,301.8,2.3,3.9,309.6,0.17,3.8,7.3,"10:16:48",1
"24/02/17","10:30",0.0,7.0,79.2,1019.2,295.6,2.6,3.6,313.0,0.16,3.7,7.5,"10:28:40",1
"24/02/17","10:40",0.0,7.4,78.7,1019.2,307.2,2.6,4.2,347.7,0.23,4.0,7.4,"10:38:08",1
"24/02/17","10:50",0.0,8.1,77.9,1019.2,321.5,3.1,4.3,340.5,0.31,4.5,7.4,"10:45:14",1
"24/02/17","11:00",0.0,8.8,77.3,1019.4,328.3,2.6,4.4,329.9,0.40,5.1,7.7,"10:51:30",1
"24/02/17","11:10",0.0,9.6,75.7,1019.4,316.8,1.8,3.3,310.9,0.50,5.6,7.7,"11:02:20",1
"24/02/17","11:20",0.0,10.0,72.9,1019.0,256.1,1.7,3.2,245.7,0.57,5.4,7.8,"11:18:20",1
"24/02/17","11:30",0.0,11.1,72.0,1018.2,225.5,0.8,1.9,246.8,0.59,6.3,7.7,"11:21:28",1
"24/02/17","11:40",0.0,11.4,70.5,1018.5,194.8,1.2,1.8,216.4,0.46,6.3,8.1,"11:33:12",1
"24/02/17","11:50",0.0,12.1,69.3,1018.5,195.2,0.8,2.2,156.6,0.56,6.7,8.2,"11:41:28",1
"24/02/17","12:00",0.0,12.4,68.1,1018.5,170.8,1.0,2.0,132.5,0.54,6.7,8.2,"11:50:16",1
"24/02/17","12:10",0.0,12.3,66.7,1018.5,166.1,0.8,1.8,226.9,0.42,6.3,8.2,"12:00:40",1
"24/02/17","12:20",0.0,12.0,66.4,1018.0,135.3,0.8,1.9,118.7,0.31,6.0,8.0,"12:11:12",1
"24/02/17","12:30",0.0,13.3,66.2,1017.8,228.2,0.6,1.3,122.1,0.55,7.2,8.3,"12:24:56",1
"24/02/17","12:40",0.0,13.6,64.3,1017.5,245.2,1.3,2.6,236.0,0.59,7.0,8.4,"12:32:40",1
"24/02/17","12:50",0.0,14.1,63.0,1017.3,250.2,1.1,2.4,232.4,0.61,7.2,8.5,"12:42:48",1
"24/02/17","13:00",0.0,13.8,62.2,1016.8,237.1,1.6,2.2,247.0,0.50,6.7,8.8,"12:50:08",1
"24/02/17","13:10",0.0,14.1,60.6,1016.4,229.5,0.8,2.1,145.4,0.45,6.6,9.0,"13:00:08",1
"24/02/17","13:20",0.0,14.3,59.9,1016.1,291.1,1.3,2.9,247.0,0.46,6.7,8.9,"13:17:36",1
"24/02/17","13:30",0.0,15.0,61.2,1016.4,183.5,1.0,3.2,203.8,0.54,7.6,9.0,"13:29:28",1
"24/02/17","13:40",0.0,15.1,58.8,1016.6,268.1,1.5,2.6,259.3,0.48,7.1,9.0,"13:32:00",1
"24/02/17","13:50",0.0,14.4,59.6,1016.1,241.7,1.6,3.5,221.3,0.36,6.7,9.1,"13:44:24",1
"24/02/17","14:00",0.0,15.2,59.5,1015.6,212.6,1.3,2.7,233.2,0.50,7.4,9.6,"13:56:32",1
"24/02/17","14:10",0.0,15.5,57.0,1015.9,225.0,1.3,3.4,186.5,0.45,7.1,9.6,"14:01:20",1
"24/02/17","14:20",0.0,15.4,57.3,1015.9,203.0,0.8,3.2,191.3,0.31,7.0,9.7,"14:10:02",1
"24/02/17","14:30",0.0,15.8,58.1,1015.6,176.9,1.5,4.4,133.3,0.48,7.6,9.8,"14:25:28",1
"24/02/17","14:40",0.0,15.4,58.2,1016.1,160.6,1.5,3.7,121.2,0.32,7.3,9.8,"14:34:00",1
"24/02/17","14:50",0.0,15.1,58.3,1016.1,106.5,1.3,3.1,119.5,0.27,7.0,9.9,"14:40:48",1
"24/02/17","15:00",0.0,15.3,58.4,1015.9,313.5,1.1,2.0,342.9,0.21,7.2,10.0,"14:50:32",1
"24/02/17","15:10",0.0,15.7,57.0,1016.1,244.2,0.8,2.6,330.7,0.21,7.3,9.9,"15:09:28",1
"24/02/17","15:20",0.0,15.5,58.1,1016.4,351.0,1.0,3.4,336.9,0.16,7.3,10.2,"15:10:32",1
"24/02/17","15:30",0.0,15.5,58.8,1016.6,92.2,0.8,2.1,356.8,0.15,7.5,10.0,"15:24:48",1
"24/02/17","15:40",0.0,15.6,58.9,1016.1,295.5,1.0,3.1,114.9,0.17,7.6,10.3,"15:39:28",1
"24/02/17","15:50",0.0,15.3,59.9,1016.4,113.3,1.2,2.2,135.2,0.13,7.6,10.2,"15:44:24",1
"24/02/17","16:00",0.0,15.2,60.5,1016.6,114.2,1.3,3.2,109.5,0.12,7.7,10.2,"15:54:40",1
"24/02/17","16:10",0.0,15.1,61.4,1016.4,148.6,1.1,2.1,124.8,0.09,7.8,10.2,"16:00:24",1
"24/02/17","16:20",0.0,15.1,61.4,1016.6,86.4,1.1,2.6,133.9,0.09,7.8,10.2,"16:13:28",1
"24/02/17","16:30",0.0,15.0,62.3,1016.8,121.3,1.6,2.9,111.0,0.09,7.9,10.4,"16:20:40",1
"24/02/17","16:40",0.0,14.8,62.8,1017.1,114.2,1.8,3.1,110.2,0.07,7.8,10.2,"16:31:20",1
"24/02/17","16:50",0.0,14.7,62.3,1017.1,73.4,1.1,1.9,96.9,0.06,7.6,10.5,"16:40:18",1
"24/02/17","17:00",0.0,14.4,63.3,1017.1,107.9,1.5,2.7,106.9,0.03,7.6,10.6,"16:51:50",1
"24/02/17","17:10",0.0,14.2,64.5,1017.1,116.2,1.3,2.8,111.7,0.02,7.6,10.4,"17:07:34",1
"24/02/17","17:20",0.0,14.0,65.4,1017.5,113.4,1.5,2.9,118.7,0.01,7.7,10.3,"17:16:40",1
"24/02/17","17:30",0.0,13.6,66.2,1017.3,118.0,1.8,3.4,115.7,0.00,7.5,10.3,"17:25:28",1
"24/02/17","17:40",0.0,13.3,67.3,1017.3,116.6,1.5,3.2,114.6,0.00,7.4,10.6,"17:36:56",1
"24/02/17","17:50",0.0,13.2,68.0,1017.5,106.3,1.2,2.6,106.8,0.00,7.5,10.5,"17:42:32",1
"24/02/17","18:00",0.0,13.0,68.9,1017.8,129.5,0.8,1.8,106.2,0.00,7.5,10.4,"17:50:32",1
"24/02/17","18:10",0.0,12.7,69.6,1017.8,111.5,0.7,1.6,112.4,0.00,7.3,10.4,"18:04:40",1
"24/02/17","18:20",0.0,12.4,70.6,1018.0,333.2,1.1,1.8,330.6,0.00,7.3,10.4,"18:11:38",1
"24/02/17","18:30",0.0,11.9,72.1,1018.0,322.1,1.7,2.1,324.7,0.00,7.1,10.3,"18:24:34",1
"24/02/17","18:40",0.0,11.5,73.1,1018.2,307.0,1.3,1.9,342.8,0.00,6.9,10.1,"18:37:52",1
"24/02/17","18:50",0.0,11.2,74.0,1018.2,296.8,1.1,1.7,308.7,0.00,6.8,10.3,"18:40:08",1
"24/02/17","19:00",0.0,11.3,75.7,1018.5,296.1,1.7,2.4,318.4,0.00,7.2,10.2,"18:55:40",1
"24/02/17","19:10",0.0,11.1,77.2,1018.5,300.0,1.8,2.5,316.9,0.00,7.3,10.2,"19:01:12",1
"24/02/17","19:20",0.0,10.9,78.4,1018.7,305.5,1.7,2.5,281.4,0.00,7.3,10.3,"19:13:12",1
"24/02/17","19:30",0.0,10.6,79.7,1019.0,323.6,1.5,2.1,330.2,0.00,7.3,10.1,"19:26:24",1
"24/02/17","19:40",0.0,10.3,81.2,1019.2,318.4,1.7,2.6,318.1,0.00,7.3,10.1,"19:30:56",1
"24/02/17","19:50",0.0,10.0,82.3,1019.2,318.7,1.7,2.9,308.6,0.00,7.2,10.2,"19:40:56",1
"24/02/17","20:00",0.0,9.6,83.2,1019.0,296.2,1.6,1.9,267.7,0.00,6.9,10.0,"19:52:24",1
"24/02/17","20:10",0.0,9.4,84.1,1019.0,298.0,1.6,2.2,325.3,0.00,6.9,10.0,"20:07:12",1
"24/02/17","20:20",0.0,9.2,84.9,1019.0,329.3,1.7,2.5,334.2,0.00,6.8,9.9,"20:11:28",1
"24/02/17","20:30",0.0,8.8,85.6,1019.2,316.0,1.6,2.2,321.5,0.00,6.6,10.0,"20:23:12",1
"24/02/17","20:40",0.0,8.7,86.3,1019.0,316.7,1.7,2.6,334.3,0.00,6.6,9.9,"20:31:44",1
"24/02/17","20:50",0.0,8.6,87.0,1019.2,303.4,1.7,2.0,311.1,0.00,6.6,10.0,"20:44:24",1
"24/02/17","21:00",0.0,8.7,87.6,1019.0,312.6,1.6,2.2,315.6,0.00,6.8,9.8,"20:52:40",1
"24/02/17","21:10",0.0,8.6,88.0,1019.2,313.5,1.7,2.4,324.2,0.00,6.8,9.8,"21:03:44",1
"24/02/17","21:20",0.0,8.7,88.5,1019.7,302.5,1.6,2.2,321.9,0.00,6.9,9.7,"21:10:48",1
"24/02/17","21:30",0.0,8.7,88.9,1019.0,289.9,1.2,1.7,295.4,0.00,7.0,9.9,"21:29:12",1
"24/02/17","21:40",0.0,8.8,89.1,1019.7,308.3,1.3,1.8,308.8,0.00,7.1,9.7,"21:30:16",1
"24/02/17","21:50",0.0,8.9,89.4,1019.9,312.0,1.6,2.0,324.0,0.00,7.3,9.7,"21:46:08",1
"24/02/17","22:00",0.0,8.8,89.5,1019.2,306.0,1.5,2.0,324.0,0.00,7.2,9.6,"21:56:08",1
"24/02/17","22:10",0.0,8.9,89.7,1019.7,312.7,1.2,1.6,322.2,0.00,7.3,9.7,"22:00:08",1
"24/02/17","22:20",0.0,8.6,89.9,1019.7,303.1,1.6,1.8,272.6,0.00,7.1,9.7,"22:11:04",1
"24/02/17","22:30",0.0,8.5,90.2,1019.4,325.5,1.8,2.6,317.4,0.00,7.0,9.6,"22:25:04",1
"24/02/17","22:40",0.0,8.3,90.5,1019.4,301.6,1.5,2.6,322.1,0.00,6.9,9.5,"22:39:12",1
"24/02/17","22:50",0.0,8.0,90.8,1019.7,298.4,1.3,1.8,310.0,0.00,6.6,9.5,"22:41:52",1
"24/02/17","23:00",0.0,8.0,91.2,1019.4,310.8,1.6,2.5,324.6,0.00,6.7,9.3,"22:57:28",1
"24/02/17","23:10",0.0,8.1,91.5,1019.9,304.8,1.3,2.1,319.4,0.00,6.8,9.3,"23:05:04",1
"24/02/17","23:20",0.0,8.2,91.7,1019.9,294.7,1.3,1.7,311.9,0.00,7.0,9.5,"23:13:52",1
"24/02/17","23:30",0.0,8.6,91.9,1019.7,316.2,1.5,2.2,324.7,0.00,7.4,9.6,"23:23:20",1
"24/02/17","23:40",0.0,8.7,92.0,1019.9,289.5,1.0,1.6,270.5,0.00,7.5,9.3,"23:39:52",1
"24/02/17","23:50",0.0,8.9,92.2,1020.1,296.0,1.6,2.1,317.3,0.00,7.7,9.5,"23:49:20",1
"24/02/17","24:00",0.0,9.1,92.3,1020.4,325.7,1.8,2.1,326.1,0.00,8.0,9.3,"23:54:16",1
